Home > Weather > Tsu > Past weeks

Flag for Japan Past Weather in Tsu, Japan — Yesterday and Last 2 Weeks

Now
80 °F

Warm.


Feels Like: 81 °F
Forecast: 65 / 72 °F
Wind: 10 mph from Southeast

Location: Tsu

Current Time: Jun 27, 2016 at 4:54:33 PM

Latest Report: Jun 27, 2016 at 4:00 PM


Visibility: N/A

Pressure: 29.90 "Hg

Humidity: 55%

Dew Point: 62 °F

Location of TsuLocation

Past Weather in Tsu — Graph

°F

Tsu Temperature Yesterday

Maximum temperature yesterday: 85 °F (at 2:00 PM)
Minimum temperature yesterday: 69 °F (at 12:00 AM)
Average temperature yesterday: 76 °F

High & Low Weather Summary for the Past Weeks

 TemperatureHumidityPressure
High87 °F (Jun 21, 3:00 PM)92% (Jun 13, 3:00 AM)29.98 "Hg (Jun 13, 3:00 AM)
Low67 °F (Jun 24, 6:00 AM)38% (Jun 26, 2:00 PM)29.44 "Hg (Jun 13, 5:00 PM)
Average75 °F73%29.74 "Hg
* Reported Jun 12 3:00 PM — Jun 27 3:00 PM, Tsu, Weather by CustomWeather, © 2016

Note: Actual official high and low records may vary slightly from our data, if they occured in-between our weather recording intervals... More about our weather records

Advertising

Tsu Weather History for the Previous 24 Hours

Scroll right to see more
 ConditionsComfort  
Time TempWeatherWind HumidityBarometerVisibility
3:00 PM
Mon, Jun 27
81 °FOvercast.13 mph50%29.91 "Hg16 mi
2:00 PM81 °FWarm.17 mph57%29.92 "HgN/A
1:00 PM82 °FWarm.9 mph49%29.92 "HgN/A
12:00 PM81 °FWarm.7 mph46%29.93 "HgN/A
11:00 AM79 °FWarm.6 mph49%29.93 "HgN/A
10:00 AM77 °FWarm.5 mph51%29.93 "HgN/A
9:00 AM75 °FPassing clouds.3 mph60%29.94 "Hg19 mi
8:00 AM73 °FMild.3 mph62%29.95 "HgN/A
7:00 AM72 °FMild.3 mph63%29.95 "HgN/A
6:00 AM67 °FMild.2 mph74%29.94 "HgN/A
5:00 AM69 °FMild.2 mph71%29.93 "HgN/A
4:00 AM70 °FMild.3 mph70%29.91 "HgN/A
3:00 AM70 °FMild.1 mph69%29.89 "HgN/A
2:00 AM71 °FMild.5 mph67%29.88 "HgN/A
1:00 AM72 °FMild.3 mph66%29.88 "HgN/A
12:00 AM73 °FMild.5 mph62%29.88 "HgN/A
11:00 PM
Sun, Jun 26
74 °FMild.6 mph61%29.89 "HgN/A
10:00 PM74 °FMild.5 mph61%29.89 "HgN/A
9:00 PM76 °FPassing clouds.5 mph57%29.88 "Hg19 mi
8:00 PM77 °FWarm.7 mph52%29.85 "HgN/A
7:00 PM78 °FWarm.10 mph50%29.84 "HgN/A
6:00 PM79 °FWarm.8 mph50%29.81 "HgN/A
5:00 PM79 °FWarm.12 mph49%29.79 "HgN/A
4:00 PM80 °FWarm.12 mph47%29.77 "HgN/A
Weather by CustomWeather, © 2016

See weather overviewHow to use our weather pages